Location: Castillon
(43.0896°N, 0.2156°E)
Time: 02:43:24
(UTC+00:00)

Meteor 2-20 - Pass Details

Date: 16 June 2021
Orbit: 939 x 958 km, 82.5° (Epoch: 04 August)

Event Time Altitude Azimuth Distance (km) Brightness Sun altitude
Rises 20:39:17 0° 181° (S) 3,609 7.1 -9.1°
Reaches altitude 10° 20:41:46 10° 180° (S) 2,665 6.4 -9.4°
Maximum altitude 20:47:51 77° 95° (E) 976 4.4 -10.2°
Drops below altitude 10° 20:53:56 10° 11° (NNE) 2,670 7.3 -11.0°
Sets 20:56:26 0° 10° (N) 3,617 8.1 -11.3°
